Location: Lussas
(44.6119°N, 4.4726°E)
Time: 04:43:13
(UTC+00:00)

Okean O Rocket - Pass Details

Date: 26 November 2020
Orbit: 623 x 644 km, 98.2° (Epoch: 18 January)

Event Time Altitude Azimuth Distance (km) Brightness Sun altitude
Rises 05:10:30 0° 27° (NNE) 2,953 5.2 -17.9°
Reaches altitude 10° 05:13:10 10° 43° (NE) 2,042 4.6 -17.4°
Maximum altitude 05:16:34 21° 93° (E) 1,437 4.4 -16.8°
Drops below altitude 10° 05:19:57 10° 143° (SE) 2,035 4.9 -16.2°
Sets 05:22:37 0° 160° (SSE) 2,941 5.5 -15.8°
